الصفحة الرئيسية
METAR-TAF:

METAR-TAF

مطار :

Mc Elroy Airfield

Kremmling, كولورادو, الولايات المتحدة

دائرة عرض: 40-03-13N, خط طول: 106-22-08W, ارتفاع: 2259 متر

مراقبة الطقس الحالي

تاريخ ووقت الإصدار 23 دقيقة قبل الساعة 18:54UTC
رياح هادئة
درجة الحرارة -8°درجة مئوية
الرطوبة 67%
ضغط 1026 hPa
الرؤية: 16.1 كم
غيوم متفرقة على ارتفاع 9000 قدم

METAR: K20V 171854Z AUTO 00000KT 10SM SCT090 M08/M13 A3029 RMK AO2

زمن: 12:17 (19:17 UTC)


TAF: مفقودة

أرصاد الطقس والتوقعات من أكثر من 4000 مطار (تقارير الطقس للمطار METAR والتنبؤ بالطقس بالمطارTAF).

المحطات المتاحة هي النقط الصفراء والحمراء على الخريطة.

حرك المؤشر فوق النقطة لمعرفة اسم المحطة.

ثم انقر لمعرفة أرصاد وتوقعات الطقس.

لتغيير الخارطة: اضغط على الأزرار الخضراء مع رمز الصليب الأسود للتكبير. على الزر الأخضر مع شرطة للتصغير، أو على الأسهم الخضراء للخرائط المجاورة.


METAR-TAF: